Hereford, TX

2:05 PM CST on November 18, 2017 (GMT -0600)
Hereford Municipal

Weather History for KHRX - March, 2013

Change the Weather History Date:

Saturday, March 9, 2013

  Actual Average (KCVN) Record (KCVN)
Temperature  
Mean Temperature 48 °F -  
Max Temperature 58 °F 63 °F 82 °F (2017)
Min Temperature 36 °F 32 °F 12 °F (2002)
Degree Days  
Heating Degree Days 18    
Moisture  
Dew Point 31 °F    
Average Humidity 54    
Maximum Humidity 92    
Minimum Humidity 18    
Precipitation  
Precipitation 0.03 in - - ()
Sea Level Pressure  
Sea Level Pressure 29.76 in    
Wind  
Wind Speed 15 mph (WSW)    
Max Wind Speed 34 mph    
Max Gust Speed 44 mph    
Visibility 10 miles    
Events Rain , Thunderstorm    
Averages and records for this station are not official NWS values.
T = Trace of Precipitation, MM = Missing Value Source: NWS Daily Summary

Daily Weather History Graph

Daily Weather History Graph

Search for Another Location

Airport or City:

Trip Planner

Search our weather history database for the weather conditions in past years. The results will help you decide how hot, cold, wet, or windy it might be!

Date:

Astronomy

Mar. 09, 2013 Rise Set
Actual Time 7:07 AM CST 6:52 PM CST
Civil Twilight 6:42 AM CST 7:17 PM CST
Nautical Twilight 6:13 AM CST 7:46 PM CST
Astronomical Twilight 5:43 AM CST 8:16 PM CST
Moon 5:29 AM CST (3/9) 4:59 PM CST (3/9)
Length of Visible Light 12h 34m
Length of Day
11h 44m
Waning Crescent, 5% of the Moon is Illuminated
Mar 9
Waning Crescent
Mar 11
New
Mar 19
First Quarter
Mar 27
Full
Apr 2
Last Quarter

Hourly Weather History & Observations

Time (CST) Temp. Windchill Dew Point Humidity Pressure Visibility Wind Dir Wind Speed Gust Speed Precip Events Conditions
12:15 AM 52.5 °F - 48.2 °F 85% 29.82 in 10.0 mi SSW 5.8 mph - N/A Rain Light Rain
12:35 AM 52.0 °F - 48.6 °F 88% 29.82 in 10.0 mi SSW 4.6 mph - 0.01 in Rain Rain
12:55 AM 51.6 °F - 48.6 °F 89% 29.82 in 10.0 mi SSW 6.9 mph - 0.01 in Rain Light Rain
1:15 AM 51.4 °F - 48.6 °F 90% 29.80 in 10.0 mi SSW 5.8 mph - N/A   Drizzle
1:35 AM 51.3 °F - 48.4 °F 90% 29.80 in 10.0 mi South 5.8 mph - 0.01 in Rain Light Rain
1:55 AM 50.9 °F - 48.2 °F 90% 29.78 in 10.0 mi South 5.8 mph - 0.01 in   Mostly Cloudy
2:15 AM 50.4 °F - 48.2 °F 92% 29.79 in 10.0 mi SSW 5.8 mph - N/A   Mostly Cloudy
2:35 AM 50.4 °F - 47.8 °F 91% 29.78 in 10.0 mi SSW 3.5 mph - N/A Rain Light Rain
2:55 AM 49.8 °F - 47.1 °F 90% 29.76 in 10.0 mi SSW 5.8 mph - N/A   Mostly Cloudy
3:15 AM 50.5 °F - 48.2 °F 92% 29.77 in 10.0 mi SSW 5.8 mph - 0.01 in Rain Rain
3:35 AM 50.0 °F - 47.7 °F 92% 29.75 in 10.0 mi South 5.8 mph - 0.01 in Thunderstorm Overcast
3:55 AM 50.0 °F - 47.5 °F 91% 29.74 in 10.0 mi South 5.8 mph - 0.01 in   Mostly Cloudy
4:15 AM 50.4 °F - 48.2 °F 92% 29.74 in 10.0 mi South 6.9 mph - N/A   Overcast
4:35 AM 50.0 °F - 47.5 °F 91% 29.73 in 10.0 mi SSW 6.9 mph - N/A   Mostly Cloudy
4:55 AM 50.5 °F - 47.3 °F 89% 29.74 in 10.0 mi SW 8.1 mph - N/A   Mostly Cloudy
5:15 AM 51.1 °F - 45.7 °F 82% 29.75 in 10.0 mi SW 10.4 mph - N/A   Overcast
5:35 AM 51.4 °F - 43.3 °F 74% 29.75 in 10.0 mi WSW 13.8 mph - N/A   Mostly Cloudy
5:55 AM 49.6 °F - 42.8 °F 77% 29.75 in 10.0 mi West 11.5 mph - N/A   Scattered Clouds
6:15 AM 48.6 °F - 42.1 °F 78% 29.76 in 10.0 mi West 15.0 mph 18.4 mph N/A   Mostly Cloudy
6:35 AM 47.8 °F - 40.1 °F 75% 29.77 in 10.0 mi West 11.5 mph 20.7 mph N/A   Overcast
6:55 AM 46.6 °F - 39.7 °F 77% 29.76 in 10.0 mi West 11.5 mph - N/A   Mostly Cloudy
7:15 AM 48.2 °F - 37.6 °F 67% 29.77 in 10.0 mi WSW 13.8 mph - N/A   Mostly Cloudy
7:35 AM 46.9 °F - 37.4 °F 69% 29.76 in 10.0 mi SW 12.7 mph - N/A   Mostly Cloudy
7:55 AM 46.4 °F 40.4 °F 36.7 °F 69% 29.76 in 10.0 mi WSW 13.8 mph - N/A   Scattered Clouds
8:15 AM 47.3 °F - 36.7 °F 67% 29.78 in 10.0 mi SW 13.8 mph - N/A   Clear
8:35 AM 48.2 °F - 37.2 °F 66% 29.77 in 10.0 mi WSW 12.7 mph - N/A   Clear
8:55 AM 49.1 °F - 37.6 °F 64% 29.79 in 10.0 mi WSW 16.1 mph 19.6 mph N/A   Clear
9:15 AM 49.5 °F - 36.7 °F 61% 29.78 in 10.0 mi West 19.6 mph 25.3 mph N/A   Clear
9:35 AM 50.5 °F - 36.5 °F 59% 29.77 in 10.0 mi West 20.7 mph 24.2 mph N/A   Clear
9:55 AM 51.8 °F - 36.0 °F 55% 29.75 in 10.0 mi West 24.2 mph 29.9 mph N/A   Clear
10:15 AM 52.2 °F - 34.0 °F 50% 29.75 in 10.0 mi West 31.1 mph 38.0 mph N/A   Clear
10:35 AM 52.7 °F - 32.2 °F 46% 29.75 in 10.0 mi West 32.2 mph 39.1 mph N/A   Clear
10:55 AM 53.6 °F - 29.3 °F 39% 29.75 in 10.0 mi West 31.1 mph 38.0 mph N/A   Clear
11:15 AM 54.0 °F - 28.8 °F 38% 29.74 in 10.0 mi West 31.1 mph 40.3 mph N/A   Clear
11:35 AM 54.7 °F - 27.0 °F 34% 29.74 in 10.0 mi West 33.4 mph 41.4 mph N/A   Clear
11:55 AM 55.8 °F - 27.5 °F 34% 29.74 in 10.0 mi WSW 28.8 mph 39.1 mph N/A   Clear
12:15 PM 55.9 °F - 27.1 °F 33% 29.73 in 10.0 mi WSW 33.4 mph 41.4 mph N/A   Clear
12:35 PM 56.1 °F - 24.1 °F 29% 29.73 in 10.0 mi West 34.5 mph 43.7 mph N/A   Clear
12:55 PM 56.5 °F - 20.5 °F 25% 29.72 in 10.0 mi West 32.2 mph 42.6 mph N/A   Clear
1:15 PM 57.0 °F - 22.5 °F 26% 29.71 in 10.0 mi West 32.2 mph 40.3 mph N/A   Clear
1:35 PM 58.1 °F - 20.8 °F 24% 29.71 in 10.0 mi WSW 31.1 mph 41.4 mph N/A   Clear
1:55 PM 58.1 °F - 19.8 °F 23% 29.70 in 10.0 mi West 33.4 mph 41.4 mph N/A   Clear
2:15 PM 58.3 °F - 18.9 °F 22% 29.69 in 10.0 mi West 27.6 mph 36.8 mph N/A   Clear
2:35 PM 58.3 °F - 16.3 °F 19% 29.69 in 10.0 mi West 33.4 mph 39.1 mph N/A   Clear
2:55 PM 57.9 °F - 14.7 °F 18% 29.70 in 10.0 mi WSW 33.4 mph 42.6 mph N/A   Clear
3:15 PM 57.6 °F - 15.4 °F 19% 29.70 in 10.0 mi West 25.3 mph 42.6 mph N/A   Clear
3:35 PM 57.2 °F - 14.9 °F 19% 29.69 in 10.0 mi West 31.1 mph 42.6 mph N/A   Clear
3:55 PM 56.5 °F - 14.5 °F 19% 29.70 in 10.0 mi West 29.9 mph 43.7 mph N/A   Scattered Clouds
4:15 PM 56.7 °F - 14.4 °F 19% 29.70 in 10.0 mi WSW 27.6 mph 36.8 mph N/A   Scattered Clouds
4:35 PM 56.7 °F - 15.1 °F 20% 29.70 in 10.0 mi West 31.1 mph 41.4 mph N/A   Clear
4:55 PM 56.3 °F - 13.5 °F 18% 29.70 in 10.0 mi West 31.1 mph 36.8 mph N/A   Clear
5:15 PM 55.8 °F - 14.0 °F 19% 29.70 in 10.0 mi WSW 25.3 mph 33.4 mph N/A   Clear
5:35 PM 54.9 °F - 13.5 °F 19% 29.71 in 10.0 mi West 33.4 mph 41.4 mph N/A   Clear
5:55 PM 54.3 °F - 14.9 °F 21% 29.72 in 10.0 mi West 32.2 mph 38.0 mph N/A   Clear
6:15 PM 53.1 °F - 14.4 °F 22% 29.72 in 10.0 mi West 28.8 mph 35.7 mph N/A   Clear
6:35 PM 52.0 °F - 14.9 °F 23% 29.73 in 10.0 mi West 25.3 mph 32.2 mph N/A   Clear
6:55 PM 50.2 °F - 16.7 °F 27% 29.75 in 10.0 mi West 17.3 mph 23.0 mph N/A   Clear
7:15 PM 49.5 °F - 15.3 °F 26% 29.75 in 10.0 mi West 19.6 mph 25.3 mph N/A   Clear
7:35 PM 46.8 °F - 17.8 °F 32% 29.76 in 10.0 mi West 15.0 mph - N/A   Clear
7:55 PM 45.9 °F 39.4 °F 18.1 °F 33% 29.77 in 10.0 mi West 15.0 mph 19.6 mph N/A   Clear
8:15 PM 45.7 °F 38.3 °F 18.7 °F 34% 29.78 in 10.0 mi West 18.4 mph - N/A   Clear
8:35 PM 44.4 °F 35.9 °F 29.3 °F 55% 29.81 in 10.0 mi NW 21.9 mph 29.9 mph N/A   Mostly Cloudy
9:15 PM 39.7 °F 29.7 °F 31.1 °F 71% 29.83 in 10.0 mi NNW 21.9 mph 28.8 mph N/A   Clear
9:35 PM 39.7 °F 29.5 °F 30.7 °F 70% 29.84 in 10.0 mi NNW 23.0 mph 27.6 mph N/A   Clear
9:55 PM 40.1 °F 28.6 °F 30.4 °F 68% 29.85 in 10.0 mi NNW 29.9 mph 35.7 mph N/A   Mostly Cloudy
10:15 PM 39.4 °F 29.2 °F 27.5 °F 62% 29.87 in 10.0 mi NNW 21.9 mph 34.5 mph N/A   Mostly Cloudy
10:35 PM 38.3 °F 27.6 °F 25.9 °F 61% 29.87 in 10.0 mi NNW 23.0 mph - N/A   Clear
10:55 PM 37.9 °F 25.9 °F 26.6 °F 64% 29.86 in 10.0 mi NNW 28.8 mph 39.1 mph N/A   Clear
11:15 PM 38.1 °F 26.1 °F 26.6 °F 63% 29.88 in 10.0 mi NNW 28.8 mph 36.8 mph N/A   Scattered Clouds
11:35 PM 37.9 °F 25.7 °F 25.7 °F 61% 29.88 in 10.0 mi North 29.9 mph 38.0 mph N/A   Scattered Clouds
11:55 PM 36.5 °F 25.2 °F 26.6 °F 67% 29.89 in 10.0 mi NNW 23.0 mph 31.1 mph N/A   Clear